Showing default

DB-BECON-2-VU, 68468

Orbit data source: Space-Track

DB-BECON-2-VU, 68468 is a payload satellite in SSO that was launched on Mon, 30 Mar 2026 UTC via an FALCON 9 launch vehicle from the Air Force Western Test Range (AFWTR). Payload-class satellites include a variety of spacecraft equipped with specific instruments for various scientific and technological missions. These include communications satellites like Starlink; space stations such as the ISS; scientific satellites like the Hubble; Earth observation satellites from companies like Planet Labs, Umbra, and HawkEye 360; GPS; miniature CubeSats for education and research; and military/defense satellites.

Loading next visibility...
Identifier
68468, 2026-067BE
Orbit
SSO
Country
Flag of TBDTBD
Related business
None
Manufacturer
Unknown
Mission
Operational spacecraft
Bus & Motor
Unknown
Mass
Unknown
Launch date (UTC)
2026-03-30 (3 months ago)
Launch vehicle
FALCON 9
Launch site
Air Force Western Test Range (AFWTR)
Object type
Payload
Rocket body
Debris
Shape & HBR
Unknown shape, 1.1 m
Radar Cross Section
Medium (>0.1 m² and <1 m²)

Expand to show TLE details & history
Last TLE update: 20 hours ago

TLE from 20 hours ago
0 DB-BECON-2-VU
1 68468U 26067BE  26174.38796332  .00006812  00000-0  34009-3 0  9990
2 68468  97.4548 132.6560 0008332  48.8589 311.3363 15.17785248 12878
Epoch: 2026-06-23T09:18Z
TLE epoch observation values (Epoch: 2026-06-23T09:18:40.030Z)
Latitude
-0°
Longitude
81.42896°
Altitude
511.832 km
Speed
7.61 km/s
True Right ascension
08h 50m 37s
True Declination
0° 00' 00"
Sunlit
Object was in daylight at epoch
Visualization orbit readout
Latitude
Unknown
Longitude
Unknown
Altitude
Unknown
Speed
Unknown
Apparent Right ascension
Unknown
Apparent Declination
Unknown
Sunlit
N/A
Visualization observer readout
Local Sidereal Time
16:20:48
Azimuth
Unknown
Elevation
Unknown
Doppler factor
Unknown
Orbital elements
Apogee altitude
515.245 km
Perigee altitude
503.768 km
Semi-major axis
6,887.644 km
Eccentricity
0.00083
Inclination
97.4548°
RAAN
132.656°
Arg. of periapsis
48.8589°
True anomaly
311.26456°
Mean anomaly
311.3363°
Eccentric anomaly
311.30044°
Mean motion
3.79697 °/min
Orbital period
94.81 mins
BSTAR
0.00034009
Loading maneuver chart data...
Computing Atmospheric mass density...
Loading historical data...
Loading historical data...
Loading historical data...
Loading historical data...
Loading historical data...
Loading historical data...
Loading historical data...

Documentation

Showing up to 5 results
|